EW2310 Weather Reports


time (UTC)temp
F
wind
direction
speed
knots
gust
knots
rain 1hr
in
rain 24hr
in
rain mn
in
humidity
%
barometer
mb
20260507230044 64 322 4.3 8.7 0.00 0.02 0.00 80 1008.6
20260507225544 64 11 6.1 9.6 0.00 0.02 0.00 80 1008.6
20260507225044 64 315 7.8 9.6 0.00 0.03 0.00 80 1008.6
20260507224544 63 329 5.2 9.6 0.00 0.03 0.00 81 1008.7
20260507224044 63 323 5.2 8.7 0.00 0.03 0.00 81 1008.8
20260507223544 63 324 7.0 8.7 0.00 0.03 0.00 81 1008.8
20260507223044 63 337 3.5 8.7 0.00 0.04 0.00 81 1008.8
20260507222544 64 331 2.6 9.6 0.00 0.04 0.00 81 1008.9
20260507222044 64 0 3.5 7.8 0.00 0.04 0.00 80 1008.8
20260507221544 64 312 3.5 7.8 0.00 0.04 0.00 80 1008.8
20260507221044 64 328 3.5 7.0 0.00 0.04 0.00 79 1008.9
20260507220544 64 303 4.3 9.6 0.00 0.04 0.00 79 1008.8
20260507220044 65 326 4.3 8.7 0.00 0.04 0.00 78 1008.8
20260507215544 65 332 5.2 9.6 0.00 0.04 0.00 78 1008.9
20260507215044 65 355 4.3 8.7 0.00 0.04 0.00 77 1009.0
20260507214544 65 328 5.2 8.7 0.00 0.04 0.00 77 1009.0
20260507214047 65 296 1.7 7.8 0.00 0.04 0.00 77 1009.1
20260507213544 65 317 3.5 7.8 0.00 0.04 0.00 77 1009.2
20260507213044 65 331 2.6 7.0 0.00 0.04 0.00 77 1009.2
20260507212544 65 321 2.6 7.0 0.00 0.04 0.00 77 1009.3
20260507212044 65 348 3.5 7.8 0.00 0.04 0.00 77 1009.3
20260507211547 65 326 3.5 7.0 0.00 0.04 0.00 78 1009.4
20260507211047 65 300 3.5 6.1 0.00 0.04 0.00 78 1009.4
20260507210544 65 306 4.3 4.3 0.00 0.04 0.00 77 1009.4
20260507210047 65 329 3.5 6.1 0.00 0.04 0.00 77 1009.5
20260507205544 65 336 4.3 7.0 0.00 0.04 0.00 78 1009.5
20260507205044 65 314 2.6 4.3 0.00 0.04 0.00 78 1009.5
20260507204544 65 313 4.3 6.1 0.00 0.04 0.00 78 1009.5
20260507204044 65 306 1.7 7.8 0.00 0.04 0.00 78 1009.4
20260507203545 65 304 3.5 7.8 0.00 0.04 0.00 78 1009.4
20260507203044 65 322 0.9 5.2 0.00 0.04 0.00 78 1009.5
20260507202544 65 309 4.3 6.1 0.00 0.04 0.00 78 1009.4
20260507202044 65 334 3.5 7.0 0.00 0.04 0.00 79 1009.5
20260507201545 64 316 2.6 6.1 0.00 0.04 0.00 79 1009.5
20260507201044 64 337 4.3 5.2 0.00 0.04 0.00 79 1009.6
20260507200547 64 317 2.6 7.0 0.00 0.04 0.00 79 1009.6
20260507200044 64 311 3.5 5.2 0.00 0.04 0.00 80 1009.6
20260507195544 64 280 0.0 7.0 0.00 0.04 0.00 79 1009.7
20260507195044 64 334 3.5 7.8 0.00 0.05 0.00 79 1009.7
20260507194544 64 344 0.0 5.2 0.00 0.05 0.00 79 1009.7
20260507194044 65 317 2.6 7.0 0.00 0.05 0.00 79 1009.6
20260507193544 65 309 2.6 8.7 0.00 0.05 0.00 79 1009.6
20260507193044 64 316 3.5 7.8 0.00 0.05 0.00 79 1009.6
20260507192544 65 326 2.6 7.0 0.00 0.05 0.00 79 1009.7
20260507192044 65 329 4.3 7.0 0.00 0.05 0.00 79 1009.6
20260507191544 65 328 3.5 8.7 0.00 0.05 0.00 78 1009.6
20260507191044 65 355 7.0 9.6 0.00 0.05 0.00 78 1009.5
20260507190544 65 277 6.1 10.4 0.00 0.05 0.00 78 1009.6
20260507190048 65 325 2.6 7.0 0.00 0.05 0.00 77 1009.6
20260507185545 65 331 3.5 7.0 0.00 0.05 0.00 77 1009.6
20260507185044 66 330 1.7 7.0 0.00 0.05 0.00 76 1009.5
20260507184545 66 324 0.9 5.2 0.00 0.05 0.00 75 1009.6
20260507184044 66 274 2.6 9.6 0.00 0.05 0.00 75 1009.7
20260507183544 66 309 4.3 7.0 0.00 0.05 0.00 75 1009.7
20260507183044 66 317 3.5 7.8 0.00 0.05 0.00 75 1009.6
20260507182544 67 274 1.7 4.3 0.00 0.05 0.00 74 1009.6
20260507182044 67 337 0.9 5.2 0.00 0.05 0.00 74 1009.7
20260507181545 67 309 0.9 6.1 0.00 0.05 0.00 74 1009.7
20260507181045 67 321 4.3 8.7 0.00 0.05 0.00 73 1009.6
20260507180544 67 317 8.7 7.8 0.00 0.05 0.00 73 1009.6
20260507180044 67 325 3.5 7.8 0.00 0.05 0.00 72 1009.7
20260507175544 68 304 2.6 9.6 0.00 0.05 0.00 72 1009.6
20260507175044 68 316 5.2 10.4 0.00 0.05 0.00 71 1009.6
20260507174544 68 312 2.6 7.8 0.00 0.05 0.00 71 1009.7
20260507174044 69 276 2.6 3.5 0.00 0.05 0.00 70 1009.7
20260507173544 69 314 0.9 3.5 0.00 0.05 0.00 70 1009.7
20260507173044 69 294 0.0 4.3 0.00 0.05 0.00 71 1009.7
20260507172544 69 259 0.0 4.3 0.00 0.05 0.00 70 1009.8
20260507172044 69 355 0.0 4.3 0.00 0.05 0.00 70 1009.7
20260507171544 69 255 0.9 5.2 0.00 0.05 0.00 69 1009.6
20260507171044 70 275 0.0 3.5 0.00 0.05 0.00 69 1009.7
20260507170544 70 322 0.9 5.2 0.00 0.05 0.00 68 1009.8
20260507170044 70 215 1.7 6.1 0.00 0.05 0.00 68 1009.8
20260507165544 70 278 0.0 5.2 0.00 0.05 0.00 68 1009.8
20260507165044 70 320 0.0 3.5 0.00 0.05 0.00 68 1009.8
20260507164544 71 320 2.6 2.6 0.00 0.05 0.00 67 1009.8
20260507164047 71 240 0.0 5.2 0.00 0.05 0.00 68 1009.8
20260507163547 71 291 0.9 2.6 0.00 0.05 0.00 69 1009.8
20260507163044 71 273 0.9 4.3 0.00 0.05 0.00 68 1009.7
20260507162544 71 266 0.0 3.5 0.00 0.05 0.00 69 1009.6
20260507162044 71 248 0.9 3.5 0.00 0.05 0.00 69 1009.6
20260507161544 71 310 2.6 3.5 0.00 0.05 0.00 69 1009.7
20260507161044 71 323 0.0 5.2 0.00 0.05 0.00 68 1009.7
20260507160544 72 5 0.9 4.3 0.00 0.05 0.00 69 1009.7
20260507160044 72 221 2.6 4.3 0.00 0.05 0.00 69 1009.6
20260507155544 72 113 1.7 5.2 0.00 0.05 0.00 68 1009.6
20260507155044 72 205 2.6 4.3 0.00 0.05 0.00 69 1009.6
20260507154544 72 306 0.9 2.6 0.00 0.05 0.00 70 1009.6
20260507154044 71 336 0.9 7.0 0.00 0.05 0.00 70 1009.5
20260507153544 71 305 6.1 7.0 0.00 0.05 0.00 72 1009.6
20260507153044 71 237 0.0 4.3 0.00 0.05 0.00 72 1009.6
20260507152544 70 244 0.9 3.5 0.00 0.05 0.00 72 1009.6
20260507152044 70 222 1.7 4.3 0.00 0.05 0.00 73 1009.6
20260507151547 70 12 0.9 5.2 0.00 0.05 0.00 73 1009.6
20260507151044 70 308 0.0 2.6 0.00 0.05 0.00 73 1009.7
20260507150544 70 223 0.9 4.3 0.00 0.05 0.00 72 1009.8
20260507150044 71 288 1.7 6.1 0.00 0.05 0.00 72 1009.9
20260507145544 71 149 0.9 7.8 0.00 0.05 0.00 71 1009.9
20260507145044 71 188 3.5 6.1 0.00 0.05 0.00 71 1009.8
20260507144544 71 188 0.9 6.1 0.00 0.05 0.00 70 1009.9
20260507144047 72 150 2.6 8.7 0.00 0.05 0.00 69 1009.9
20260507143544 72 195 6.1 5.2 0.00 0.05 0.00 69 1009.9
20260507143047 72 335 0.9 4.3 0.00 0.05 0.00 69 1009.9
20260507142544 72 42 0.9 5.2 0.00 0.05 0.00 69 1009.9
20260507142044 72 24 0.9 3.5 0.00 0.05 0.00 69 1009.9
20260507141544 72 34 0.9 2.6 0.00 0.05 0.00 69 1009.9
20260507141044 71 246 2.6 4.3 0.00 0.05 0.00 69 1010.0
20260507140544 71 141 0.9 5.2 0.00 0.05 0.00 69 1010.2
20260507140044 71 186 0.0 5.2 0.00 0.05 0.00 69 1010.4
20260507135547 71 269 3.5 3.5 0.00 0.05 0.00 70 1010.4
20260507135044 71 95 1.7 4.3 0.00 0.05 0.00 71 1010.5
20260507134544 70 289 0.9 5.2 0.00 0.05 0.00 71 1010.6
20260507134044 70 168 0.9 3.5 0.00 0.05 0.00 71 1010.8
20260507133544 70 126 1.7 7.0 0.00 0.05 0.00 72 1010.9
20260507133047 69 179 2.6 3.5 0.00 0.05 0.00 71 1010.9
20260507132547 69 62 1.7 5.2 0.00 0.05 0.00 71 1011.0
20260507132044 69 350 0.0 5.2 0.00 0.05 0.00 71 1011.1
20260507131544 69 184 0.9 7.0 0.00 0.05 0.00 71 1011.0
20260507131044 70 355 0.9 8.7 0.00 0.05 0.00 70 1011.1
20260507130544 70 173 4.3 6.1 0.00 0.05 0.00 70 1011.2
20260507130044 70 180 0.9 5.2 0.00 0.05 0.00 70 1011.2
20260507125544 70 36 0.9 5.2 0.00 0.05 0.00 70 1011.3
20260507125044 70 302 0.9 10.4 0.00 0.05 0.00 70 1011.3
20260507124544 70 181 1.7 10.4 0.00 0.05 0.00 70 1011.3
20260507124044 71 184 4.3 8.7 0.00 0.05 0.00 69 1011.3
20260507123544 71 265 1.7 9.6 0.00 0.05 0.00 69 1011.2
20260507123044 71 215 0.0 7.0 0.00 0.05 0.00 68 1011.3
20260507122544 71 244 3.5 7.0 0.00 0.05 0.00 68 1011.2
20260507122044 71 196 7.0 9.6 0.00 0.05 0.00 68 1011.3
20260507121544 72 340 1.7 8.7 0.00 0.05 0.00 66 1011.3
20260507121044 73 260 0.9 10.4 0.00 0.05 0.00 65 1011.3
20260507120544 74 175 3.5 11.3 0.00 0.05 0.00 63 1011.2
20260507120044 74 220 2.6 7.0 0.00 0.05 0.00 58 1011.3
20260507115547 74 42 1.7 3.5 0.00 0.05 0.00 54 1011.3
20260507115044 74 30 0.0 1.7 0.00 0.05 0.00 56 1011.2
20260507114544 74 29 0.9 3.5 0.00 0.05 0.00 56 1011.2
20260507114044 73 344 1.7 4.3 0.00 0.05 0.00 57 1011.2
20260507113544 73 69 4.3 4.3 0.00 0.05 0.00 57 1011.3
20260507113044 72 321 3.5 3.5 0.00 0.05 0.00 56 1011.3
20260507112544 72 59 0.9 5.2 0.00 0.05 0.00 56 1011.3
20260507112044 72 29 1.7 5.2 0.00 0.05 0.00 57 1011.3
20260507111544 72 67 2.6 7.8 0.00 0.05 0.00 59 1011.5
20260507111044 72 290 0.9 7.0 0.00 0.05 0.00 61 1011.5
20260507110544 71 71 0.0 5.2 0.00 0.05 0.00 60 1011.6
20260507110047 71 355 3.5 7.8 0.00 0.05 0.00 60 1011.6
20260507105544 71 46 3.5 7.0 0.00 0.05 0.00 61 1011.6
20260507105044 71 350 1.7 4.3 0.00 0.05 0.00 62 1011.7
20260507104544 71 341 3.5 8.7 0.00 0.05 0.00 61 1011.8
20260507104044 71 355 1.7 3.5 0.00 0.05 0.00 62 1011.8
20260507103544 71 330 0.9 5.2 0.00 0.05 0.00 62 1011.9
20260507103044 71 327 3.5 9.6 0.00 0.05 0.00 63 1011.9
20260507102544 71 281 0.9 3.5 0.00 0.05 0.00 64 1011.9
20260507102044 70 301 0.0 7.8 0.00 0.05 0.00 64 1012.0
20260507101544 70 317 7.0 7.0 0.00 0.05 0.00 64 1012.1
20260507101044 70 312 3.5 7.8 0.00 0.05 0.00 63 1012.1
20260507100544 70 315 3.5 7.8 0.00 0.05 0.00 64 1012.2
20260507100044 70 323 2.6 7.0 0.00 0.05 0.00 65 1012.0
20260507095547 70 112 2.6 4.3 0.00 0.05 0.00 64 1012.0
20260507095047 70 319 5.2 9.6 0.00 0.05 0.00 63 1012.0
20260507094544 70 314 2.6 4.3 0.00 0.05 0.00 64 1012.2
20260507094044 69 322 0.9 5.2 0.00 0.05 0.00 65 1012.2
20260507093547 70 22 1.7 7.0 0.00 0.05 0.00 64 1012.2
20260507093044 70 80 7.0 7.0 0.00 0.05 0.00 63 1012.2
20260507092547 70 38 2.6 2.6 0.00 0.05 0.00 66 1012.2
20260507092048 69 40 0.0 3.5 0.00 0.05 0.00 67 1012.3
20260507091544 68 111 1.7 3.5 0.00 0.05 0.00 67 1012.2
20260507091044 68 344 1.7 4.3 0.00 0.05 0.00 67 1012.2
20260507090544 68 349 1.7 4.3 0.00 0.05 0.00 68 1012.2
20260507090044 68 321 0.0 5.2 0.00 0.05 0.00 68 1012.1
20260507085544 67 39 0.9 3.5 0.00 0.05 0.00 69 1012.1
20260507085044 67 37 3.5 7.8 0.00 0.05 0.00 68 1012.0
20260507084544 67 311 3.5 7.8 0.00 0.05 0.00 69 1012.0
20260507084044 67 320 4.3 5.2 0.00 0.05 0.00 69 1012.1
20260507083544 68 329 4.3 5.2 0.00 0.05 0.00 68 1012.2
20260507083044 68 309 0.9 2.6 0.00 0.05 0.00 69 1012.3
20260507082544 68 308 0.9 4.3 0.00 0.05 0.00 69 1012.2
20260507082044 67 304 0.0 5.2 0.00 0.05 0.00 70 1012.1
20260507081544 67 355 0.9 5.2 0.00 0.05 0.00 68 1012.2
20260507081047 68 271 2.6 2.6 0.00 0.05 0.00 70 1012.2
20260507080547 67 190 1.7 2.6 0.00 0.05 0.00 71 1012.1
20260507080044 67 194 0.9 5.2 0.00 0.05 0.00 71 1012.2
20260507075544 66 153 1.7 4.3 0.00 0.05 0.00 71 1012.2
20260507075044 66 152 2.6 3.5 0.00 0.05 0.00 71 1012.2
20260507074544 66 146 0.9 6.1 0.00 0.05 0.00 70 1012.2
20260507074044 66 212 0.0 1.7 0.00 0.05 0.00 72 1012.2
20260507073544 66 213 0.0 3.5 0.00 0.05 0.00 71 1012.3
20260507073044 66 188 1.7 2.6 0.00 0.05 0.00 72 1012.3
20260507072547 66 189 0.9 2.6 0.00 0.05 0.00 72 1012.4
20260507072044 65 190 0.0 7.0 0.00 0.05 0.00 73 1012.4
20260507071547 65 171 0.9 6.1 0.00 0.05 0.00 72 1012.5
20260507071044 65 163 0.0 1.7 0.00 0.05 0.00 75 1012.5
20260507070544 65 163 0.9 4.3 0.00 0.05 0.00 75 1012.6
20260507070044 65 162 0.0 5.2 0.00 0.05 0.00 76 1012.6
20260507065544 64 138 0.9 6.1 0.00 0.05 0.00 77 1012.6
20260507065044 64 174 1.7 2.6 0.00 0.05 0.00 78 1012.7
20260507064547 64 174 1.7 7.0 0.00 0.05 0.00 77 1012.7
20260507064048 64 152 0.0 5.2 0.00 0.05 0.00 79 1012.6
20260507063544 63 158 1.7 6.1 0.00 0.05 0.00 78 1012.4
20260507063044 63 150 0.0 4.3 0.00 0.05 0.00 79 1012.3
20260507062544 63 162 3.5 5.2 0.00 0.05 0.00 80 1012.3
20260507062044 63 150 2.6 7.0 0.00 0.05 0.00 80 1012.2
20260507061544 62 136 0.0 3.5 0.00 0.05 0.00 81 1012.2
20260507061044 62 140 1.7 4.3 0.00 0.05 0.00 81 1012.1
20260507060544 61 128 1.7 3.5 0.00 0.05 0.00 82 1012.1
20260507060047 61 117 3.5 3.5 0.00 0.05 0.00 82 1012.1
20260507055544 61 140 1.7 2.6 0.00 0.04 0.00 83 1012.2
20260507055047 60 140 0.0 3.5 0.00 0.04 0.00 83 1012.1
20260507054544 60 141 0.9 4.3 0.00 0.04 0.00 82 1012.0
20260507054044 60 116 0.9 2.6 0.00 0.04 0.00 82 1012.0
20260507053544 60 115 0.9 3.5 0.00 0.04 0.00 82 1012.1
20260507053044 60 78 2.6 3.5 0.00 0.04 0.00 83 1012.1
20260507052544 60 78 0.0 2.6 0.00 0.04 0.00 84 1012.0
20260507052047 60 78 1.7 3.5 0.00 0.04 0.00 84 1012.0
20260507051544 60 77 1.7 4.3 0.00 0.04 0.00 84 1012.0
20260507051044 59 75 0.9 2.6 0.00 0.04 0.00 84 1012.0
20260507050544 59 75 2.6 3.5 0.00 0.04 0.00 84 1012.0
20260507050047 59 75 2.6 2.6 0.00 0.04 0.00 85 1012.0
20260507045544 59 74 1.7 3.5 0.00 0.04 0.00 85 1011.9
20260507045044 58 74 0.9 1.7 0.00 0.04 0.00 85 1011.9
20260507044544 58 74 1.7 2.6 0.00 0.05 0.00 85 1011.9
20260507044044 58 74 0.9 1.7 0.00 0.05 0.00 85 1011.9
20260507043544 58 74 0.9 2.6 0.00 0.05 0.00 85 1011.9
20260507043044 58 74 0.9 2.6 0.00 0.05 0.00 85 1011.8
20260507042547 58 74 1.7 2.6 0.00 0.05 0.00 85 1011.8
20260507042047 58 74 0.9 2.6 0.00 0.05 0.00 85 1011.8
20260507041544 58 74 2.6 4.3 0.00 0.05 0.00 85 1011.8
20260507041044 58 67 3.5 4.3 0.00 0.05 0.00 85 1011.7
20260507040544 58 65 1.7 2.6 0.00 0.05 0.00 85 1011.7
20260507040044 58 65 2.6 3.5 0.00 0.05 0.00 85 1011.7
20260507035544 59 65 0.9 3.5 0.00 0.05 0.00 85 1011.6
20260507035044 59 65 1.7 4.3 0.00 0.05 0.00 85 1011.7
20260507034544 59 63 2.6 3.5 0.00 0.05 0.00 84 1011.7
20260507034044 59 60 1.7 1.7 0.00 0.05 0.00 84 1011.8
20260507033544 59 60 1.7 3.5 0.00 0.05 0.00 84 1011.8
20260507033044 59 60 0.0 2.6 0.00 0.05 0.00 85 1011.9
20260507032547 58 60 0.9 3.5 0.00 0.05 0.00 85 1011.8
20260507032047 58 36 3.5 3.5 0.00 0.05 0.00 85 1011.8
20260507031544 58 346 1.7 2.6 0.00 0.05 0.00 85 1011.9
20260507031044 58 346 0.0 0.9 0.00 0.05 0.00 85 1011.9
20260507030544 58 346 0.0 1.7 0.00 0.05 0.00 86 1011.8
20260507030044 58 346 0.9 1.7 0.00 0.05 0.00 86 1011.8
20260507025544 58 346 0.9 1.7 0.00 0.05 0.00 86 1011.8
20260507025044 58 346 0.9 2.6 0.00 0.05 0.00 86 1011.8
20260507024547 58 346 1.7 2.6 0.00 0.05 0.00 86 1011.8
20260507024044 58 346 0.9 4.3 0.00 0.05 0.00 86 1011.7
20260507023544 58 345 3.5 3.5 0.00 0.05 0.00 87 1011.8
20260507023044 58 345 1.7 4.3 0.00 0.05 0.00 87 1011.8
20260507022544 58 344 1.7 3.5 0.00 0.05 0.00 87 1011.8
20260507022047 58 340 3.5 4.3 0.00 0.05 0.00 88 1011.8
20260507021545 58 331 2.6 4.3 0.00 0.05 0.00 88 1011.8
20260507021048 58 341 2.6 4.3 0.00 0.05 0.00 88 1011.8
20260507020544 58 340 4.3 4.3 0.00 0.05 0.00 88 1011.8
20260507020044 58 335 3.5 5.2 0.00 0.05 0.00 88 1011.8
20260507015544 58 332 2.6 3.5 0.00 0.05 0.00 88 1011.8
20260507015047 58 331 0.9 2.6 0.00 0.05 0.00 88 1011.8
20260507014544 58 331 0.0 2.6 0.00 0.05 0.00 88 1011.7
20260507014044 58 345 1.7 2.6 0.00 0.05 0.00 88 1011.8
20260507013547 58 104 0.9 1.7 0.00 0.05 0.00 88 1011.7
20260507013047 58 105 0.0 2.6 0.00 0.05 0.00 88 1011.7
20260507012544 58 105 0.0 1.7 0.00 0.05 0.00 89 1011.7
20260507012044 58 105 0.0 2.6 0.00 0.05 0.00 89 1011.7
20260507011544 57 105 0.9 1.7 0.00 0.05 0.00 89 1011.7
20260507011044 57 108 0.0 1.7 0.00 0.05 0.00 90 1011.6
20260507010547 57 108 0.0 2.6 0.00 0.05 0.00 90 1011.5
20260507010044 57 108 0.9 3.5 0.00 0.05 0.00 90 1011.6
20260507005544 57 108 2.6 5.2 0.00 0.05 0.00 90 1011.7
20260507005047 57 108 0.9 2.6 0.00 0.05 0.00 90 1011.7
20260507004544 57 107 1.7 3.5 0.00 0.05 0.00 91 1011.7
20260507004044 57 103 0.9 3.5 0.00 0.05 0.00 91 1011.7
20260507003547 57 91 1.7 3.5 0.00 0.05 0.00 91 1011.8
20260507003044 57 111 3.5 5.2 0.00 0.05 0.00 90 1011.8
20260507002544 57 87 0.0 5.2 0.00 0.05 0.00 91 1011.9
20260507002044 57 103 0.9 6.1 0.00 0.05 0.00 91 1011.9
20260507001544 57 88 2.6 7.0 0.00 0.05 0.00 91 1011.8
20260507001044 57 138 2.6 8.7 0.00 0.05 0.00 91 1011.8
20260507000544 57 144 4.3 6.1 0.00 0.05 0.00 91 1011.8
20260507000044 57 148 3.5 8.7 0.01 0.05 0.00 91 1011.9
20260506235544 57 81 6.1 8.7 0.01 0.05 0.00 91 1011.9
20260506235044 58 135 2.6 7.8 0.02 0.05 0.00 91 1011.9
20260506234544 58 95 5.2 8.7 0.02 0.05 0.00 91 1012.0
20260506234044 58 113 2.6 7.0 0.03 0.05 0.00 91 1012.0
20260506233544 58 133 4.3 7.8 0.03 0.05 0.00 91 1012.1
20260506233044 58 154 3.5 9.6 0.03 0.05 0.00 90 1012.2
20260506232544 58 213 5.2 10.4 0.03 0.05 0.00 90 1012.2
20260506232044 58 146 8.7 10.4 0.03 0.05 0.00 90 1012.2
20260506231544 58 140 7.8 12.2 0.03 0.04 0.00 90 1012.1
20260506231044 58 154 7.0 12.2 0.03 0.04 0.00 90 1012.1
20260506230544 58 146 8.7 12.2 0.03 0.04 0.00 90 1012.1